Weather History for Louisville, KY

Change the Weather History Date:

Monday, November 4, 2013

  Actual Average Record
Temperature  
Mean Temperature 53 °F 53 °F  
Max Temperature 64 °F 63 °F 80 °F (2003)
Min Temperature 42 °F 43 °F 20 °F (1991)
Degree Days  
Heating Degree Days 12 12  
Month to date heating degree days 47 46  
Since 1 July heating degree days 280 288  
Cooling Degree Days 0 0  
Month to date cooling degree days 0 0  
Year to date cooling degree days 1628 1609  
Growing Degree Days 3 (Base 50)    
Moisture  
Dew Point 38 °F    
Average Humidity 58    
Maximum Humidity 76    
Minimum Humidity 39    
Precipitation  
Precipitation 0.00 in 0.11 in 1.47 in (1936)
Month to date precipitation 0.01 0.45  
Year to date precipitation 44.46 37.94  
Snow  
Snow 0.00 in 0.00 in 7.40 in (1936)
Month to date snowfall 0.0 0.0  
Since 1 July snowfall T 0.1  
Since 1 September snowfall T 0.1  
Snow Depth 0.00 in    
Sea Level Pressure  
Sea Level Pressure 30.33 in    
Wind  
Wind Speed 6 mph (SSE)    
Max Wind Speed 18 mph    
Max Gust Speed 24 mph    
Visibility 10 miles    
Events      
T = Trace of Precipitation, MM = Missing Value Source: NWS Daily Summary

Daily Weather History Graph

Daily Weather History Graph

Search for Another Location

Airport:

Trip Planner

Search our weather history database for the weather conditions in past years. The results will help you decide how hot, cold, wet, or windy it might be!

Date:

Astronomy

Nov. 04, 2013 Rise Set
Actual Time 7:12 AM EST 5:40 PM EST
Civil Twilight 6:44 AM EST 6:07 PM EST
Nautical Twilight 6:13 AM EST 6:38 PM EST
Astronomical Twilight 5:42 AM EST 7:09 PM EST
Moon 8:21 AM EST (11/4) 6:45 PM EST (11/4)
Length of Visible Light 11h 22m
Length of Day
10h 27m
New Moon, 2% of the Moon is Illuminated
Nov 4
New Moon
Nov 10
First Quarter
Nov 17
Full
Nov 25
Last Quarter
Dec 2
New

Hourly Weather History & Observations

Time (EST) Temp. Windchill Dew Point Humidity Pressure Visibility Wind Dir Wind Speed Gust Speed Precip Events Conditions
12:56 AM 44.1 °F 42.5 °F 36.0 °F 73% 30.33 in 10.0 mi East 3.5 mph - N/A   Overcast
1:56 AM 44.1 °F 41.5 °F 36.0 °F 73% 30.32 in 10.0 mi ESE 4.6 mph - N/A   Mostly Cloudy
2:56 AM 43.0 °F 39.5 °F 36.0 °F 76% 30.32 in 10.0 mi ESE 5.8 mph - N/A   Mostly Cloudy
3:56 AM 44.1 °F - 36.0 °F 73% 30.32 in 10.0 mi Calm Calm - N/A   Overcast
4:56 AM 43.0 °F 41.3 °F 36.0 °F 76% 30.33 in 10.0 mi SE 3.5 mph - N/A   Overcast
5:56 AM 43.0 °F 41.3 °F 36.0 °F 76% 30.34 in 10.0 mi SE 3.5 mph - N/A   Overcast
6:56 AM 43.0 °F 40.3 °F 36.0 °F 76% 30.33 in 10.0 mi ESE 4.6 mph - N/A   Mostly Cloudy
7:56 AM 44.1 °F - 36.0 °F 73% 30.38 in 10.0 mi Calm Calm - N/A   Overcast
8:56 AM 45.0 °F 40.1 °F 37.0 °F 74% 30.37 in 10.0 mi SE 9.2 mph - N/A   Mostly Cloudy
9:56 AM 51.1 °F - 37.9 °F 61% 30.38 in 10.0 mi SSE 8.1 mph - N/A   Mostly Cloudy
10:56 AM 52.0 °F - 39.0 °F 61% 30.36 in 10.0 mi SSE 10.4 mph - N/A   Mostly Cloudy
11:56 AM 57.0 °F - 39.9 °F 53% 30.36 in 10.0 mi South 6.9 mph - N/A   Mostly Cloudy
12:56 PM 61.0 °F - 39.9 °F 46% 30.30 in 10.0 mi South 13.8 mph - N/A   Mostly Cloudy
1:56 PM 63.0 °F - 39.0 °F 41% 30.28 in 10.0 mi South 13.8 mph 19.6 mph N/A   Overcast
2:56 PM 63.0 °F - 37.9 °F 40% 30.30 in 10.0 mi South 10.4 mph 19.6 mph N/A   Overcast
3:56 PM 62.1 °F - 37.9 °F 41% 30.30 in 10.0 mi SSW 13.8 mph - N/A   Overcast
4:56 PM 60.1 °F - 37.9 °F 44% 30.29 in 10.0 mi South 8.1 mph - N/A   Overcast
5:56 PM 59.0 °F - 39.0 °F 48% 30.30 in 10.0 mi Calm Calm - N/A   Overcast
6:56 PM 57.9 °F - 39.9 °F 51% 30.32 in 10.0 mi Calm Calm - N/A   Overcast
7:56 PM 55.9 °F - 41.0 °F 57% 30.31 in 10.0 mi ESE 5.8 mph - N/A   Overcast
8:56 PM 55.9 °F - 41.0 °F 57% 30.31 in 10.0 mi ESE 6.9 mph - N/A   Overcast
9:56 PM 55.0 °F - 41.0 °F 59% 30.32 in 10.0 mi Calm Calm - N/A   Overcast
10:56 PM 55.0 °F - 41.0 °F 59% 30.32 in 10.0 mi Calm Calm - N/A   Overcast
11:56 PM 55.0 °F - 41.0 °F 59% 30.32 in 10.0 mi SSE 5.8 mph - N/A   Overcast